Location: Balmoral
(33.0667°S, 151.5833°E)
Time: 03:26:46
(UTC+00:00)

ERS-2 - Pass Details

Date: 18 September 2020
Orbit: 492 x 499 km, 98.6° (Epoch: 23 October)

Event Time Altitude Azimuth Distance (km) Brightness Sun altitude
Rises 18:19:50 0° 154° (SSE) 2,616 6.3 -19.1°
Reaches altitude 10° 18:22:09 10° 142° (SE) 1,724 5.5 -18.6°
Maximum altitude 18:25:23 28° 82° (E) 973 4.3 -17.9°
Drops below altitude 10° 18:28:34 10° 21° (NNE) 1,704 5.0 -17.3°
Sets 18:30:50 0° 9° (N) 2,578 5.7 -16.8°
